GEFSNE_prec_meanprecacc_090.txt.gz
Total_Precipitation_Accumulation
0.23 0.24 0.26 0.24 0.25 0.26 0.28 0.38 0.53 0.37 0.10 0.03 0.05 0.06 0.09 0.13 0.17 0.17 0.17 0.20 0.27 0.34 0.37 0.40 0.45 0.54 0.85 1.51 2.47 3.13 3.00 2.33 1.60 1.20 1.18 1.39 1.77 2.14
0.28 0.30 0.31 0.31 0.31 0.30 0.32 0.32 0.40 0.48 0.29 0.05 0.06 0.07 0.09 0.12 0.17 0.18 0.19 0.20 0.22 0.27 0.32 0.34 0.38 0.46 0.61 0.90 1.49 2.39 2.97 2.90 2.29 1.68 1.43 1.49 1.67 2.08
0.30 0.34 0.35 0.35 0.35 0.33 0.34 0.35 0.34 0.40 0.39 0.10 0.04 0.07 0.13 0.16 0.18 0.18 0.19 0.18 0.16 0.20 0.26 0.32 0.36 0.42 0.53 0.70 0.96 1.53 2.38 2.88 2.86 2.36 1.93 1.72 1.64 1.75
0.44 0.43 0.44 0.45 0.47 0.45 0.45 0.41 0.36 0.34 0.40 0.25 0.07 0.06 0.13 0.20 0.26 0.26 0.22 0.19 0.16 0.16 0.21 0.27 0.33 0.38 0.48 0.59 0.75 1.02 1.59 2.32 2.78 2.73 2.32 1.93 1.71 1.71
0.72 0.71 0.68 0.65 0.66 0.64 0.62 0.55 0.44 0.35 0.35 0.33 0.17 0.09 0.13 0.23 0.33 0.35 0.30 0.23 0.17 0.18 0.21 0.24 0.29 0.33 0.38 0.48 0.60 0.75 1.01 1.42 2.03 2.56 2.71 2.39 1.99 1.79
0.82 0.86 0.91 0.93 0.93 0.89 0.87 0.72 0.56 0.47 0.40 0.39 0.28 0.18 0.16 0.23 0.41 0.46 0.41 0.33 0.24 0.20 0.23 0.24 0.28 0.33 0.34 0.36 0.39 0.52 0.77 1.13 1.54 2.08 2.59 2.70 2.36 2.04
0.58 0.61 0.73 0.89 1.01 1.09 1.12 0.97 0.82 0.75 0.63 0.53 0.42 0.31 0.25 0.31 0.46 0.52 0.56 0.51 0.43 0.34 0.27 0.22 0.23 0.25 0.26 0.30 0.37 0.46 0.62 0.82 1.08 1.48 2.02 2.50 2.55 2.33
0.37 0.38 0.43 0.58 0.70 0.81 0.95 1.00 1.04 1.09 0.99 0.80 0.61 0.46 0.35 0.35 0.43 0.60 0.65 0.69 0.65 0.50 0.42 0.35 0.31 0.28 0.26 0.24 0.29 0.36 0.49 0.66 0.85 1.10 1.43 1.90 2.30 2.40
0.21 0.22 0.23 0.31 0.44 0.49 0.57 0.68 0.82 0.97 1.08 1.05 0.95 0.71 0.51 0.43 0.50 0.61 0.67 0.71 0.67 0.63 0.63 0.61 0.53 0.42 0.35 0.33 0.37 0.36 0.41 0.52 0.66 0.84 1.04 1.35 1.76 2.15
0.16 0.14 0.13 0.18 0.32 0.43 0.53 0.53 0.54 0.69 0.93 1.10 1.19 1.02 0.76 0.63 0.70 0.79 0.85 0.82 0.77 0.82 0.86 0.85 0.72 0.58 0.53 0.49 0.46 0.40 0.38 0.42 0.52 0.65 0.80 0.99 1.27 1.67
0.13 0.14 0.12 0.11 0.27 0.39 0.41 0.37 0.34 0.45 0.58 0.80 0.96 0.96 0.87 0.81 0.85 1.01 1.04 1.04 1.02 1.02 1.06 1.06 0.95 0.76 0.71 0.72 0.65 0.52 0.42 0.40 0.44 0.53 0.64 0.76 0.94 1.30
0.10 0.11 0.17 0.21 0.28 0.31 0.30 0.31 0.33 0.35 0.34 0.39 0.46 0.56 0.62 0.66 0.81 1.01 1.07 1.07 1.08 1.22 1.21 1.12 1.16 1.05 1.03 0.94 0.77 0.55 0.45 0.45 0.47 0.49 0.54 0.61 0.74 0.93
0.12 0.13 0.15 0.21 0.24 0.23 0.23 0.27 0.36 0.30 0.23 0.27 0.32 0.38 0.47 0.55 0.64 0.84 1.04 1.10 1.12 1.17 1.18 1.13 1.27 1.16 1.07 1.05 0.91 0.70 0.48 0.41 0.43 0.53 0.58 0.62 0.67 0.69
0.15 0.10 0.11 0.14 0.15 0.17 0.20 0.25 0.25 0.24 0.27 0.28 0.29 0.30 0.38 0.49 0.59 0.69 0.86 0.98 1.04 1.08 1.06 1.07 1.24 1.19 1.00 0.88 0.88 0.87 0.67 0.52 0.44 0.45 0.50 0.70 0.78 0.77
0.26 0.20 0.12 0.11 0.12 0.11 0.14 0.19 0.20 0.23 0.30 0.31 0.27 0.25 0.31 0.43 0.50 0.59 0.67 0.76 0.86 0.95 1.03 1.05 1.15 1.24 1.11 0.89 0.75 0.79 0.82 0.76 0.57 0.50 0.50 0.54 0.61 0.67
0.25 0.19 0.12 0.11 0.09 0.07 0.07 0.09 0.13 0.19 0.25 0.26 0.23 0.21 0.24 0.32 0.41 0.52 0.63 0.69 0.77 0.86 1.01 1.11 1.22 1.37 1.30 0.99 0.82 0.77 0.72 0.81 0.73 0.54 0.51 0.54 0.55 0.51
0.25 0.20 0.15 0.13 0.13 0.11 0.08 0.07 0.08 0.12 0.17 0.20 0.20 0.22 0.25 0.29 0.37 0.46 0.62 0.70 0.77 0.81 0.98 1.21 1.31 1.42 1.46 1.33 1.12 0.89 0.72 0.65 0.67 0.57 0.52 0.60 0.68 0.61
0.27 0.24 0.16 0.12 0.11 0.11 0.10 0.08 0.08 0.09 0.11 0.16 0.20 0.22 0.26 0.31 0.36 0.43 0.56 0.69 0.76 0.78 0.89 1.13 1.31 1.47 1.62 1.65 1.45 1.07 0.83 0.70 0.70 0.65 0.55 0.58 0.74 0.78
0.22 0.18 0.12 0.11 0.11 0.10 0.10 0.10 0.09 0.07 0.09 0.14 0.18 0.19 0.23 0.28 0.34 0.41 0.50 0.61 0.70 0.77 0.85 1.01 1.24 1.43 1.54 1.65 1.76 1.43 1.07 0.86 0.82 0.83 0.72 0.57 0.59 0.70
0.16 0.16 0.13 0.11 0.11 0.12 0.11 0.11 0.10 0.09 0.10 0.12 0.14 0.16 0.21 0.27 0.31 0.36 0.45 0.57 0.66 0.74 0.82 0.93 1.17 1.37 1.42 1.34 1.44 1.59 1.52 1.16 0.92 0.92 0.88 0.75 0.70 0.84
0.12 0.12 0.12 0.12 0.12 0.12 0.11 0.11 0.11 0.10 0.09 0.10 0.11 0.13 0.17 0.22 0.26 0.30 0.37 0.48 0.59 0.68 0.75 0.83 1.03 1.25 1.39 1.31 1.23 1.35 1.59 1.61 1.20 0.93 0.84 0.84 0.86 0.92
0.12 0.13 0.12 0.12 0.13 0.13 0.13 0.12 0.11 0.10 0.08 0.09 0.09 0.10 0.12 0.17 0.21 0.25 0.32 0.41 0.50 0.59 0.67 0.76 0.90 1.19 1.43 1.45 1.34 1.30 1.48 1.70 1.72 1.38 1.02 0.79 0.70 0.70
0.17 0.16 0.14 0.13 0.12 0.13 0.13 0.12 0.10 0.08 0.07 0.07 0.08 0.08 0.09 0.13 0.16 0.21 0.27 0.34 0.43 0.51 0.61 0.74 0.87 1.10 1.39 1.51 1.45 1.34 1.35 1.47 1.57 1.50 1.43 1.14 0.71 0.47

GEFSNE_prec_meanprecacc_096.txt.gz
Total_Precipitation_Accumulation
0.23 0.24 0.26 0.24 0.25 0.26 0.28 0.38 0.53 0.37 0.10 0.03 0.05 0.06 0.09 0.13 0.17 0.17 0.17 0.20 0.27 0.34 0.37 0.40 0.45 0.54 0.85 1.51 2.47 3.14 3.00 2.35 1.63 1.26 1.27 1.50 1.89 2.27
0.28 0.30 0.31 0.31 0.31 0.30 0.32 0.32 0.40 0.48 0.29 0.05 0.06 0.07 0.09 0.12 0.17 0.18 0.19 0.21 0.22 0.27 0.33 0.35 0.38 0.47 0.61 0.91 1.49 2.40 2.98 2.91 2.30 1.71 1.49 1.58 1.78 2.20
0.30 0.34 0.35 0.35 0.35 0.33 0.34 0.35 0.34 0.40 0.39 0.10 0.04 0.07 0.13 0.16 0.18 0.18 0.19 0.18 0.16 0.20 0.26 0.32 0.36 0.43 0.54 0.71 0.97 1.54 2.40 2.90 2.88 2.38 1.97 1.78 1.74 1.86
0.44 0.43 0.44 0.45 0.47 0.45 0.45 0.41 0.36 0.35 0.40 0.26 0.07 0.06 0.13 0.20 0.26 0.26 0.22 0.19 0.16 0.16 0.21 0.27 0.33 0.38 0.48 0.60 0.76 1.03 1.61 2.34 2.81 2.76 2.35 1.97 1.78 1.81
0.72 0.71 0.68 0.65 0.66 0.64 0.62 0.55 0.44 0.36 0.35 0.33 0.17 0.09 0.13 0.23 0.33 0.35 0.30 0.23 0.17 0.18 0.21 0.25 0.30 0.34 0.40 0.49 0.62 0.78 1.04 1.45 2.06 2.60 2.75 2.44 2.05 1.88
0.82 0.86 0.91 0.94 0.94 0.89 0.87 0.72 0.56 0.48 0.41 0.40 0.30 0.19 0.16 0.23 0.41 0.46 0.42 0.33 0.24 0.20 0.23 0.24 0.29 0.34 0.35 0.37 0.41 0.55 0.80 1.17 1.59 2.13 2.64 2.75 2.42 2.12
0.58 0.62 0.73 0.89 1.02 1.09 1.13 0.99 0.84 0.77 0.66 0.57 0.45 0.34 0.27 0.32 0.47 0.53 0.58 0.52 0.44 0.34 0.27 0.23 0.24 0.25 0.27 0.31 0.39 0.49 0.66 0.87 1.15 1.56 2.10 2.59 2.64 2.41
0.37 0.38 0.43 0.59 0.71 0.82 0.97 1.02 1.08 1.13 1.05 0.86 0.68 0.53 0.39 0.38 0.46 0.63 0.68 0.72 0.67 0.50 0.43 0.36 0.31 0.29 0.26 0.25 0.30 0.38 0.53 0.72 0.94 1.19 1.54 2.01 2.42 2.52
0.21 0.22 0.23 0.32 0.45 0.50 0.58 0.70 0.84 1.00 1.12 1.09 1.01 0.76 0.55 0.46 0.54 0.67 0.72 0.76 0.70 0.64 0.65 0.63 0.54 0.43 0.35 0.34 0.38 0.38 0.45 0.57 0.74 0.93 1.16 1.47 1.89 2.29
0.16 0.14 0.13 0.18 0.33 0.43 0.54 0.54 0.55 0.70 0.95 1.11 1.21 1.03 0.78 0.65 0.74 0.85 0.90 0.88 0.81 0.84 0.89 0.89 0.73 0.59 0.54 0.50 0.47 0.42 0.41 0.46 0.57 0.72 0.89 1.10 1.39 1.80
0.13 0.14 0.12 0.12 0.28 0.41 0.44 0.39 0.35 0.46 0.60 0.83 1.00 1.00 0.92 0.88 0.93 1.11 1.17 1.18 1.13 1.06 1.07 1.09 0.97 0.77 0.72 0.72 0.65 0.53 0.44 0.43 0.48 0.58 0.70 0.85 1.04 1.41
0.10 0.11 0.18 0.22 0.31 0.34 0.33 0.34 0.36 0.36 0.36 0.41 0.48 0.58 0.65 0.68 0.85 1.08 1.19 1.21 1.22 1.31 1.23 1.14 1.18 1.08 1.07 0.94 0.77 0.55 0.45 0.46 0.49 0.53 0.59 0.67 0.82 1.03
0.14 0.14 0.16 0.23 0.27 0.26 0.28 0.31 0.40 0.34 0.27 0.31 0.36 0.41 0.49 0.57 0.65 0.86 1.08 1.18 1.22 1.26 1.21 1.15 1.31 1.20 1.11 1.06 0.92 0.70 0.49 0.42 0.44 0.55 0.61 0.66 0.72 0.77
0.18 0.12 0.12 0.16 0.18 0.21 0.24 0.29 0.30 0.29 0.31 0.32 0.31 0.32 0.40 0.51 0.60 0.71 0.87 1.01 1.08 1.13 1.10 1.12 1.31 1.23 1.04 0.92 0.89 0.87 0.67 0.52 0.44 0.46 0.51 0.72 0.82 0.83
0.28 0.22 0.15 0.15 0.15 0.14 0.15 0.21 0.23 0.25 0.32 0.33 0.29 0.27 0.32 0.44 0.51 0.60 0.68 0.78 0.88 0.98 1.07 1.10 1.22 1.29 1.17 0.94 0.78 0.80 0.82 0.76 0.58 0.50 0.51 0.55 0.62 0.69
0.27 0.21 0.15 0.13 0.11 0.09 0.08 0.10 0.14 0.20 0.26 0.28 0.25 0.23 0.25 0.33 0.43 0.54 0.66 0.72 0.81 0.90 1.03 1.13 1.26 1.44 1.38 1.04 0.86 0.79 0.73 0.81 0.73 0.55 0.52 0.55 0.56 0.52
0.28 0.24 0.18 0.14 0.14 0.12 0.09 0.07 0.08 0.13 0.18 0.21 0.22 0.24 0.27 0.31 0.38 0.48 0.65 0.75 0.83 0.84 1.00 1.23 1.34 1.48 1.52 1.38 1.18 0.91 0.73 0.66 0.67 0.58 0.53 0.62 0.69 0.62
0.32 0.29 0.18 0.13 0.12 0.12 0.11 0.09 0.09 0.10 0.13 0.18 0.22 0.24 0.29 0.34 0.39 0.45 0.60 0.74 0.81 0.81 0.92 1.15 1.36 1.56 1.71 1.72 1.48 1.09 0.85 0.72 0.71 0.66 0.56 0.59 0.74 0.78
0.25 0.20 0.13 0.12 0.12 0.12 0.11 0.11 0.10 0.08 0.11 0.16 0.20 0.22 0.26 0.32 0.38 0.44 0.54 0.65 0.74 0.80 0.88 1.03 1.28 1.49 1.60 1.68 1.77 1.44 1.08 0.88 0.84 0.86 0.74 0.57 0.59 0.71
0.16 0.17 0.15 0.12 0.12 0.13 0.13 0.12 0.11 0.10 0.12 0.14 0.16 0.18 0.24 0.30 0.35 0.39 0.48 0.60 0.69 0.78 0.86 0.96 1.19 1.39 1.43 1.35 1.45 1.59 1.53 1.17 0.94 0.94 0.89 0.76 0.70 0.84
0.13 0.13 0.13 0.13 0.13 0.13 0.13 0.13 0.13 0.12 0.11 0.13 0.14 0.15 0.19 0.26 0.30 0.33 0.40 0.50 0.62 0.72 0.78 0.85 1.04 1.26 1.41 1.34 1.27 1.36 1.59 1.62 1.21 0.94 0.85 0.85 0.87 0.93
0.13 0.14 0.13 0.13 0.14 0.15 0.15 0.14 0.13 0.11 0.10 0.11 0.11 0.12 0.14 0.20 0.24 0.28 0.35 0.43 0.52 0.61 0.69 0.77 0.91 1.21 1.47 1.49 1.35 1.31 1.49 1.70 1.73 1.39 1.03 0.79 0.71 0.71
0.18 0.17 0.15 0.14 0.14 0.14 0.15 0.14 0.12 0.10 0.08 0.09 0.10 0.10 0.11 0.15 0.18 0.23 0.29 0.36 0.45 0.53 0.64 0.77 0.89 1.12 1.41 1.52 1.46 1.35 1.36 1.48 1.58 1.52 1.44 1.14 0.71 0.47

GEFSNE_prec_meanprecacc_102.txt.gz
Total_Precipitation_Accumulation
0.23 0.24 0.26 0.24 0.25 0.26 0.28 0.38 0.53 0.37 0.10 0.03 0.05 0.06 0.09 0.13 0.17 0.17 0.17 0.20 0.27 0.34 0.37 0.40 0.45 0.55 0.86 1.52 2.48 3.14 3.01 2.36 1.64 1.27 1.29 1.54 1.97 2.39
0.28 0.30 0.31 0.31 0.31 0.30 0.32 0.32 0.40 0.48 0.29 0.05 0.06 0.07 0.09 0.12 0.17 0.18 0.19 0.21 0.22 0.27 0.33 0.35 0.39 0.47 0.62 0.92 1.50 2.41 2.99 2.92 2.32 1.73 1.51 1.61 1.83 2.28
0.30 0.34 0.35 0.35 0.35 0.33 0.34 0.35 0.34 0.40 0.39 0.10 0.04 0.07 0.13 0.16 0.18 0.18 0.19 0.18 0.16 0.20 0.26 0.32 0.37 0.44 0.55 0.72 0.98 1.56 2.41 2.92 2.90 2.40 1.99 1.81 1.77 1.92
0.44 0.43 0.44 0.45 0.47 0.45 0.45 0.41 0.36 0.35 0.40 0.26 0.07 0.06 0.13 0.20 0.26 0.26 0.22 0.19 0.16 0.16 0.21 0.28 0.34 0.39 0.49 0.61 0.77 1.05 1.63 2.36 2.83 2.79 2.38 2.01 1.82 1.86
0.72 0.71 0.68 0.65 0.66 0.64 0.62 0.55 0.44 0.36 0.35 0.34 0.18 0.10 0.14 0.23 0.33 0.35 0.30 0.23 0.17 0.18 0.21 0.25 0.30 0.34 0.40 0.50 0.63 0.79 1.06 1.48 2.09 2.62 2.78 2.47 2.08 1.92
0.82 0.86 0.91 0.94 0.94 0.89 0.87 0.72 0.57 0.48 0.42 0.41 0.31 0.20 0.17 0.24 0.42 0.47 0.42 0.33 0.24 0.20 0.23 0.24 0.29 0.34 0.36 0.38 0.43 0.57 0.82 1.20 1.61 2.16 2.67 2.79 2.45 2.15
0.58 0.62 0.73 0.89 1.02 1.10 1.13 0.99 0.85 0.78 0.67 0.59 0.48 0.36 0.29 0.34 0.48 0.54 0.59 0.53 0.44 0.34 0.27 0.23 0.24 0.25 0.27 0.31 0.39 0.49 0.66 0.88 1.16 1.58 2.14 2.63 2.68 2.45
0.38 0.38 0.43 0.59 0.71 0.83 0.98 1.03 1.09 1.15 1.07 0.89 0.71 0.56 0.42 0.39 0.48 0.64 0.70 0.75 0.70 0.51 0.43 0.36 0.31 0.29 0.26 0.25 0.30 0.38 0.53 0.72 0.95 1.21 1.56 2.04 2.46 2.57
0.21 0.22 0.23 0.32 0.45 0.50 0.59 0.70 0.85 1.00 1.13 1.12 1.04 0.79 0.56 0.47 0.56 0.69 0.74 0.78 0.72 0.65 0.66 0.65 0.54 0.43 0.35 0.34 0.38 0.39 0.45 0.58 0.75 0.95 1.18 1.50 1.93 2.33
0.16 0.14 0.13 0.18 0.33 0.44 0.54 0.54 0.55 0.71 0.96 1.13 1.23 1.05 0.79 0.66 0.76 0.88 0.95 0.95 0.86 0.87 0.90 0.91 0.74 0.59 0.54 0.50 0.47 0.42 0.41 0.47 0.59 0.73 0.91 1.12 1.42 1.84
0.13 0.14 0.12 0.12 0.28 0.43 0.45 0.40 0.37 0.47 0.61 0.85 1.02 1.04 0.96 0.92 0.99 1.18 1.26 1.28 1.21 1.09 1.08 1.11 0.98 0.77 0.72 0.72 0.65 0.53 0.44 0.43 0.49 0.59 0.72 0.87 1.07 1.45
0.11 0.11 0.18 0.23 0.32 0.37 0.36 0.36 0.39 0.38 0.37 0.43 0.50 0.60 0.66 0.70 0.87 1.11 1.22 1.27 1.29 1.36 1.24 1.15 1.19 1.09 1.09 0.95 0.77 0.55 0.45 0.46 0.49 0.54 0.60 0.69 0.85 1.06
0.14 0.15 0.16 0.25 0.29 0.29 0.31 0.34 0.43 0.38 0.30 0.34 0.39 0.43 0.50 0.58 0.65 0.86 1.09 1.21 1.28 1.32 1.23 1.19 1.35 1.23 1.15 1.09 0.92 0.70 0.49 0.42 0.44 0.55 0.62 0.68 0.75 0.81
0.18 0.12 0.12 0.18 0.21 0.25 0.27 0.32 0.33 0.33 0.33 0.34 0.33 0.33 0.40 0.51 0.60 0.71 0.88 1.02 1.10 1.16 1.12 1.16 1.37 1.28 1.10 0.96 0.91 0.88 0.68 0.52 0.44 0.46 0.51 0.73 0.83 0.86
0.28 0.23 0.17 0.17 0.18 0.15 0.17 0.23 0.25 0.26 0.33 0.34 0.30 0.27 0.33 0.45 0.52 0.61 0.69 0.79 0.89 0.99 1.08 1.12 1.26 1.34 1.23 1.00 0.80 0.81 0.83 0.76 0.58 0.50 0.51 0.55 0.62 0.71
0.29 0.23 0.18 0.16 0.13 0.10 0.09 0.11 0.14 0.20 0.28 0.30 0.26 0.24 0.25 0.34 0.44 0.55 0.67 0.73 0.83 0.91 1.03 1.14 1.27 1.47 1.43 1.08 0.89 0.81 0.74 0.82 0.73 0.55 0.52 0.55 0.56 0.52
0.31 0.27 0.20 0.16 0.15 0.12 0.09 0.07 0.09 0.13 0.19 0.23 0.24 0.26 0.28 0.32 0.39 0.49 0.67 0.77 0.86 0.86 1.01 1.24 1.35 1.50 1.55 1.42 1.22 0.94 0.74 0.67 0.67 0.58 0.54 0.62 0.69 0.62
0.35 0.32 0.20 0.14 0.13 0.12 0.12 0.10 0.09 0.11 0.13 0.19 0.23 0.26 0.30 0.35 0.40 0.46 0.61 0.77 0.83 0.82 0.92 1.16 1.38 1.60 1.75 1.74 1.50 1.10 0.86 0.72 0.72 0.67 0.56 0.59 0.75 0.79
0.26 0.21 0.14 0.13 0.13 0.12 0.12 0.12 0.11 0.09 0.11 0.17 0.22 0.24 0.28 0.33 0.39 0.46 0.55 0.67 0.76 0.81 0.89 1.04 1.31 1.54 1.64 1.69 1.78 1.44 1.08 0.88 0.86 0.87 0.74 0.58 0.59 0.71
0.16 0.18 0.16 0.13 0.13 0.14 0.14 0.14 0.12 0.11 0.12 0.15 0.17 0.20 0.26 0.32 0.37 0.41 0.49 0.62 0.71 0.79 0.87 0.98 1.21 1.42 1.46 1.37 1.46 1.59 1.53 1.17 0.95 0.95 0.89 0.76 0.70 0.84
0.13 0.14 0.14 0.14 0.14 0.15 0.14 0.14 0.14 0.13 0.12 0.14 0.15 0.16 0.21 0.28 0.32 0.34 0.42 0.52 0.64 0.74 0.79 0.86 1.04 1.27 1.43 1.38 1.30 1.37 1.59 1.62 1.21 0.94 0.86 0.86 0.88 0.93
0.14 0.15 0.14 0.14 0.15 0.16 0.16 0.15 0.14 0.12 0.11 0.12 0.12 0.13 0.15 0.21 0.26 0.29 0.36 0.45 0.54 0.62 0.70 0.77 0.92 1.23 1.51 1.52 1.37 1.31 1.49 1.71 1.73 1.39 1.03 0.81 0.72 0.71
0.19 0.19 0.16 0.15 0.15 0.16 0.16 0.15 0.14 0.11 0.09 0.10 0.11 0.11 0.12 0.16 0.19 0.24 0.30 0.38 0.46 0.54 0.65 0.78 0.91 1.14 1.43 1.54 1.47 1.36 1.37 1.49 1.59 1.53 1.45 1.15 0.72 0.47

GEFSNE_prec_meanprecacc_108.txt.gz
Total_Precipitation_Accumulation
0.23 0.24 0.26 0.24 0.25 0.26 0.28 0.38 0.53 0.37 0.10 0.03 0.05 0.06 0.09 0.13 0.17 0.17 0.17 0.20 0.27 0.34 0.38 0.41 0.45 0.55 0.86 1.53 2.48 3.15 3.02 2.37 1.65 1.28 1.30 1.56 1.98 2.40
0.28 0.30 0.31 0.31 0.31 0.30 0.32 0.32 0.40 0.48 0.29 0.05 0.06 0.07 0.09 0.12 0.17 0.18 0.19 0.21 0.22 0.27 0.33 0.35 0.39 0.48 0.63 0.93 1.51 2.42 3.01 2.94 2.33 1.75 1.53 1.63 1.85 2.30
0.30 0.34 0.35 0.35 0.35 0.33 0.34 0.35 0.34 0.40 0.39 0.10 0.04 0.07 0.13 0.16 0.18 0.18 0.19 0.18 0.16 0.20 0.26 0.33 0.38 0.45 0.56 0.74 1.00 1.58 2.43 2.94 2.92 2.43 2.02 1.84 1.80 1.95
0.44 0.43 0.44 0.45 0.47 0.45 0.45 0.41 0.36 0.35 0.40 0.26 0.07 0.06 0.13 0.20 0.26 0.26 0.22 0.19 0.16 0.16 0.21 0.28 0.35 0.41 0.51 0.63 0.79 1.07 1.66 2.39 2.86 2.82 2.41 2.04 1.86 1.90
0.72 0.71 0.68 0.65 0.66 0.64 0.62 0.55 0.44 0.36 0.35 0.34 0.18 0.10 0.14 0.23 0.34 0.35 0.30 0.23 0.17 0.18 0.21 0.25 0.31 0.35 0.42 0.52 0.65 0.82 1.08 1.50 2.11 2.65 2.81 2.50 2.11 1.95
0.82 0.86 0.91 0.94 0.94 0.89 0.87 0.72 0.57 0.48 0.42 0.41 0.31 0.20 0.17 0.24 0.42 0.47 0.42 0.34 0.24 0.20 0.23 0.24 0.29 0.35 0.37 0.39 0.44 0.58 0.83 1.21 1.63 2.18 2.69 2.81 2.47 2.17
0.58 0.62 0.73 0.89 1.02 1.10 1.14 0.99 0.85 0.79 0.68 0.60 0.49 0.37 0.30 0.35 0.49 0.55 0.60 0.53 0.45 0.34 0.27 0.23 0.24 0.26 0.27 0.31 0.39 0.49 0.66 0.89 1.17 1.60 2.15 2.65 2.69 2.47
0.38 0.38 0.43 0.59 0.71 0.83 0.98 1.04 1.10 1.16 1.08 0.91 0.73 0.58 0.43 0.40 0.48 0.65 0.72 0.77 0.72 0.51 0.43 0.36 0.31 0.29 0.26 0.25 0.30 0.38 0.53 0.73 0.96 1.23 1.58 2.06 2.48 2.59
0.21 0.22 0.23 0.32 0.45 0.50 0.59 0.70 0.85 1.01 1.15 1.14 1.07 0.81 0.57 0.48 0.57 0.72 0.78 0.83 0.76 0.67 0.68 0.66 0.54 0.43 0.35 0.34 0.38 0.39 0.46 0.59 0.77 0.97 1.20 1.52 1.95 2.35
0.16 0.14 0.13 0.18 0.33 0.44 0.54 0.54 0.55 0.71 0.96 1.14 1.24 1.06 0.80 0.69 0.79 0.94 1.02 1.02 0.91 0.89 0.92 0.94 0.74 0.59 0.54 0.50 0.47 0.42 0.42 0.48 0.60 0.75 0.93 1.15 1.45 1.87
0.13 0.14 0.12 0.12 0.28 0.44 0.46 0.41 0.37 0.47 0.61 0.86 1.05 1.07 0.99 0.97 1.03 1.23 1.32 1.35 1.27 1.11 1.09 1.12 0.99 0.78 0.72 0.72 0.65 0.53 0.45 0.44 0.50 0.61 0.74 0.90 1.10 1.48
0.11 0.11 0.18 0.24 0.33 0.38 0.37 0.37 0.41 0.39 0.38 0.44 0.51 0.61 0.67 0.70 0.89 1.12 1.24 1.32 1.34 1.39 1.25 1.16 1.20 1.11 1.12 0.95 0.77 0.55 0.45 0.46 0.50 0.54 0.61 0.71 0.87 1.08
0.14 0.15 0.16 0.25 0.29 0.30 0.33 0.36 0.46 0.40 0.32 0.37 0.42 0.44 0.51 0.58 0.66 0.86 1.10 1.24 1.33 1.37 1.25 1.22 1.39 1.26 1.19 1.11 0.92 0.70 0.49 0.42 0.44 0.55 0.62 0.68 0.76 0.82
0.18 0.12 0.13 0.18 0.23 0.27 0.30 0.34 0.36 0.35 0.35 0.35 0.34 0.33 0.40 0.51 0.60 0.71 0.88 1.03 1.12 1.19 1.14 1.19 1.43 1.33 1.15 1.00 0.92 0.88 0.68 0.52 0.44 0.46 0.51 0.73 0.84 0.87
0.29 0.24 0.18 0.19 0.20 0.17 0.18 0.24 0.26 0.27 0.34 0.35 0.31 0.28 0.33 0.45 0.52 0.61 0.69 0.80 0.90 1.00 1.09 1.14 1.30 1.39 1.28 1.05 0.83 0.82 0.83 0.77 0.58 0.50 0.51 0.56 0.63 0.71
0.29 0.24 0.19 0.17 0.13 0.10 0.09 0.11 0.14 0.20 0.29 0.31 0.28 0.25 0.26 0.34 0.44 0.55 0.68 0.75 0.85 0.91 1.04 1.15 1.29 1.51 1.47 1.11 0.91 0.83 0.75 0.83 0.74 0.55 0.52 0.55 0.56 0.53
0.33 0.30 0.22 0.17 0.15 0.12 0.09 0.07 0.09 0.13 0.20 0.23 0.25 0.27 0.29 0.33 0.40 0.49 0.68 0.79 0.88 0.87 1.02 1.24 1.36 1.51 1.57 1.44 1.24 0.95 0.75 0.68 0.68 0.58 0.54 0.63 0.69 0.62
0.38 0.34 0.21 0.15 0.13 0.13 0.12 0.10 0.09 0.11 0.14 0.20 0.25 0.27 0.32 0.36 0.41 0.47 0.62 0.79 0.85 0.84 0.93 1.17 1.39 1.62 1.77 1.75 1.51 1.12 0.87 0.74 0.73 0.67 0.57 0.60 0.75 0.79
0.27 0.22 0.14 0.13 0.13 0.13 0.13 0.13 0.11 0.09 0.12 0.19 0.23 0.25 0.29 0.35 0.41 0.47 0.56 0.68 0.77 0.82 0.90 1.05 1.33 1.57 1.67 1.71 1.78 1.44 1.09 0.89 0.86 0.88 0.75 0.58 0.59 0.71
0.17 0.18 0.16 0.13 0.13 0.14 0.14 0.14 0.13 0.11 0.13 0.16 0.18 0.21 0.27 0.35 0.39 0.42 0.50 0.63 0.72 0.80 0.88 0.98 1.23 1.44 1.49 1.39 1.48 1.60 1.54 1.18 0.96 0.96 0.90 0.77 0.71 0.84
0.14 0.14 0.14 0.15 0.15 0.15 0.15 0.15 0.15 0.14 0.13 0.15 0.16 0.18 0.22 0.30 0.34 0.35 0.43 0.53 0.66 0.75 0.81 0.86 1.05 1.29 1.46 1.41 1.32 1.38 1.60 1.63 1.22 0.95 0.86 0.87 0.89 0.94
0.15 0.15 0.14 0.14 0.16 0.17 0.17 0.16 0.16 0.14 0.12 0.13 0.13 0.14 0.17 0.23 0.28 0.31 0.37 0.46 0.55 0.63 0.71 0.78 0.93 1.25 1.53 1.54 1.38 1.31 1.49 1.71 1.74 1.40 1.04 0.81 0.73 0.72
0.20 0.20 0.17 0.16 0.15 0.16 0.18 0.17 0.15 0.12 0.11 0.11 0.12 0.12 0.14 0.18 0.21 0.26 0.32 0.39 0.47 0.55 0.66 0.78 0.92 1.15 1.44 1.55 1.49 1.37 1.38 1.50 1.60 1.54 1.47 1.16 0.73 0.48

GEFSNE_prec_meanprecacc_114.txt.gz
Total_Precipitation_Accumulation
0.23 0.24 0.26 0.24 0.25 0.26 0.28 0.38 0.53 0.37 0.10 0.03 0.05 0.06 0.09 0.13 0.17 0.17 0.17 0.20 0.27 0.34 0.38 0.41 0.46 0.56 0.88 1.54 2.50 3.17 3.04 2.39 1.67 1.30 1.32 1.58 2.01 2.43
0.28 0.30 0.31 0.31 0.31 0.30 0.32 0.32 0.40 0.48 0.29 0.05 0.06 0.07 0.09 0.12 0.17 0.18 0.19 0.21 0.23 0.28 0.33 0.36 0.40 0.49 0.64 0.95 1.53 2.44 3.03 2.96 2.36 1.77 1.56 1.66 1.89 2.34
0.30 0.34 0.35 0.35 0.35 0.33 0.34 0.35 0.34 0.40 0.39 0.10 0.04 0.07 0.13 0.16 0.18 0.18 0.19 0.18 0.16 0.20 0.27 0.34 0.38 0.46 0.58 0.76 1.02 1.60 2.46 2.97 2.95 2.46 2.06 1.88 1.85 1.99
0.44 0.43 0.44 0.45 0.47 0.45 0.45 0.41 0.36 0.35 0.40 0.26 0.07 0.06 0.13 0.20 0.26 0.26 0.22 0.19 0.16 0.16 0.21 0.29 0.36 0.42 0.53 0.65 0.82 1.10 1.68 2.42 2.89 2.85 2.45 2.08 1.90 1.95
0.72 0.71 0.68 0.65 0.66 0.64 0.62 0.55 0.44 0.36 0.35 0.34 0.18 0.10 0.14 0.23 0.34 0.35 0.30 0.23 0.17 0.18 0.21 0.25 0.31 0.36 0.43 0.54 0.68 0.84 1.11 1.52 2.14 2.68 2.84 2.53 2.14 1.98
0.82 0.86 0.91 0.94 0.94 0.89 0.87 0.72 0.57 0.48 0.42 0.42 0.32 0.20 0.18 0.24 0.42 0.47 0.43 0.34 0.25 0.20 0.23 0.24 0.29 0.35 0.37 0.40 0.45 0.59 0.84 1.22 1.64 2.19 2.71 2.83 2.49 2.19
0.58 0.62 0.73 0.89 1.02 1.10 1.14 1.00 0.85 0.80 0.69 0.61 0.50 0.39 0.30 0.36 0.50 0.56 0.61 0.54 0.45 0.34 0.28 0.23 0.24 0.26 0.27 0.31 0.39 0.50 0.66 0.89 1.18 1.61 2.17 2.67 2.72 2.49
0.38 0.38 0.43 0.59 0.71 0.83 0.98 1.04 1.10 1.17 1.09 0.93 0.75 0.60 0.44 0.41 0.50 0.67 0.74 0.79 0.73 0.52 0.44 0.37 0.32 0.30 0.26 0.25 0.30 0.39 0.54 0.74 0.98 1.25 1.61 2.09 2.51 2.61
0.21 0.22 0.23 0.32 0.45 0.50 0.59 0.70 0.85 1.01 1.16 1.16 1.09 0.82 0.59 0.49 0.59 0.74 0.81 0.87 0.79 0.69 0.70 0.68 0.55 0.44 0.36 0.34 0.38 0.40 0.47 0.61 0.79 1.00 1.23 1.55 1.98 2.38
0.16 0.14 0.13 0.18 0.33 0.44 0.54 0.54 0.56 0.71 0.96 1.14 1.25 1.06 0.81 0.70 0.82 0.99 1.08 1.08 0.95 0.90 0.93 0.96 0.75 0.60 0.54 0.50 0.48 0.43 0.43 0.49 0.62 0.78 0.96 1.17 1.47 1.89
0.13 0.14 0.12 0.12 0.28 0.44 0.47 0.42 0.38 0.48 0.62 0.87 1.06 1.09 1.02 1.00 1.07 1.27 1.37 1.40 1.30 1.12 1.10 1.14 0.99 0.78 0.73 0.73 0.65 0.54 0.45 0.45 0.51 0.63 0.76 0.92 1.11 1.50
0.11 0.11 0.18 0.24 0.33 0.39 0.38 0.39 0.42 0.40 0.39 0.45 0.52 0.62 0.68 0.71 0.89 1.14 1.26 1.35 1.37 1.41 1.26 1.18 1.22 1.13 1.14 0.96 0.77 0.56 0.46 0.47 0.50 0.55 0.62 0.72 0.88 1.09
0.15 0.15 0.17 0.25 0.30 0.31 0.35 0.38 0.48 0.42 0.34 0.39 0.43 0.46 0.52 0.58 0.66 0.87 1.11 1.26 1.37 1.40 1.26 1.25 1.43 1.29 1.23 1.13 0.93 0.71 0.49 0.42 0.44 0.55 0.62 0.68 0.77 0.83
0.19 0.12 0.13 0.19 0.24 0.29 0.31 0.35 0.37 0.37 0.37 0.36 0.35 0.34 0.41 0.52 0.61 0.72 0.88 1.03 1.13 1.20 1.15 1.22 1.50 1.38 1.20 1.03 0.94 0.88 0.68 0.52 0.44 0.46 0.52 0.73 0.84 0.87
0.29 0.24 0.18 0.20 0.21 0.17 0.18 0.25 0.27 0.28 0.35 0.36 0.31 0.28 0.33 0.45 0.53 0.62 0.70 0.80 0.91 1.00 1.09 1.15 1.34 1.43 1.34 1.10 0.85 0.83 0.84 0.77 0.58 0.51 0.51 0.56 0.63 0.71
0.29 0.24 0.20 0.18 0.14 0.10 0.10 0.12 0.15 0.21 0.29 0.32 0.28 0.25 0.26 0.35 0.45 0.56 0.69 0.75 0.86 0.92 1.04 1.16 1.31 1.55 1.52 1.14 0.94 0.84 0.76 0.84 0.74 0.55 0.53 0.56 0.57 0.53
0.35 0.32 0.24 0.18 0.16 0.13 0.10 0.08 0.09 0.13 0.20 0.24 0.26 0.28 0.29 0.33 0.40 0.50 0.69 0.81 0.90 0.88 1.02 1.25 1.37 1.53 1.59 1.46 1.26 0.96 0.76 0.69 0.69 0.59 0.55 0.63 0.69 0.63
0.40 0.37 0.22 0.15 0.14 0.13 0.12 0.11 0.10 0.11 0.14 0.21 0.26 0.28 0.33 0.37 0.42 0.48 0.64 0.80 0.87 0.85 0.94 1.18 1.40 1.63 1.77 1.76 1.52 1.13 0.88 0.75 0.74 0.68 0.58 0.60 0.75 0.79
0.29 0.23 0.15 0.14 0.14 0.13 0.13 0.13 0.12 0.09 0.12 0.19 0.24 0.26 0.31 0.36 0.42 0.48 0.57 0.70 0.78 0.83 0.90 1.06 1.34 1.59 1.69 1.72 1.79 1.45 1.10 0.90 0.88 0.89 0.76 0.59 0.60 0.71
0.17 0.18 0.16 0.14 0.14 0.15 0.15 0.15 0.13 0.12 0.14 0.17 0.19 0.22 0.29 0.37 0.40 0.44 0.51 0.64 0.74 0.81 0.89 0.99 1.24 1.46 1.52 1.41 1.49 1.62 1.54 1.19 0.97 0.97 0.90 0.77 0.71 0.84
0.14 0.14 0.15 0.15 0.15 0.16 0.16 0.15 0.16 0.15 0.14 0.16 0.17 0.19 0.24 0.32 0.36 0.37 0.44 0.54 0.67 0.76 0.82 0.87 1.06 1.30 1.48 1.43 1.34 1.39 1.61 1.63 1.23 0.96 0.87 0.88 0.90 0.95
0.15 0.16 0.15 0.15 0.17 0.18 0.18 0.18 0.17 0.15 0.13 0.14 0.14 0.15 0.18 0.25 0.30 0.32 0.39 0.48 0.56 0.64 0.72 0.79 0.93 1.26 1.54 1.55 1.39 1.32 1.50 1.72 1.75 1.41 1.05 0.82 0.74 0.72
0.21 0.20 0.18 0.17 0.16 0.17 0.19 0.18 0.17 0.14 0.11 0.12 0.13 0.13 0.15 0.20 0.23 0.28 0.33 0.41 0.49 0.57 0.67 0.79 0.93 1.17 1.45 1.56 1.50 1.38 1.39 1.50 1.61 1.55 1.47 1.17 0.74 0.49

GEFSNE_prec_meanprecacc_120.txt.gz
Total_Precipitation_Accumulation
0.23 0.24 0.26 0.24 0.25 0.26 0.28 0.38 0.53 0.37 0.10 0.03 0.05 0.06 0.09 0.13 0.17 0.17 0.17 0.20 0.27 0.34 0.38 0.41 0.46 0.57 0.88 1.55 2.51 3.18 3.06 2.40 1.69 1.33 1.35 1.61 2.04 2.47
0.28 0.30 0.31 0.31 0.31 0.30 0.32 0.32 0.40 0.48 0.29 0.05 0.06 0.07 0.09 0.12 0.17 0.18 0.19 0.21 0.23 0.28 0.33 0.36 0.41 0.50 0.65 0.96 1.54 2.46 3.05 2.99 2.39 1.81 1.60 1.71 1.93 2.39
0.30 0.34 0.35 0.35 0.35 0.33 0.34 0.35 0.34 0.40 0.39 0.10 0.04 0.07 0.13 0.16 0.18 0.18 0.19 0.18 0.16 0.20 0.27 0.34 0.39 0.47 0.59 0.77 1.04 1.62 2.49 3.00 2.98 2.50 2.10 1.92 1.89 2.04
0.44 0.43 0.44 0.45 0.47 0.45 0.45 0.41 0.36 0.35 0.40 0.26 0.07 0.06 0.13 0.20 0.26 0.26 0.22 0.19 0.16 0.16 0.21 0.29 0.36 0.42 0.53 0.67 0.84 1.12 1.71 2.44 2.91 2.87 2.47 2.11 1.93 1.98
0.72 0.71 0.68 0.65 0.66 0.64 0.62 0.55 0.44 0.36 0.35 0.34 0.18 0.10 0.14 0.23 0.34 0.35 0.30 0.23 0.17 0.18 0.21 0.25 0.31 0.36 0.44 0.55 0.69 0.86 1.12 1.54 2.16 2.70 2.86 2.55 2.17 2.01
0.82 0.86 0.91 0.94 0.94 0.89 0.87 0.72 0.57 0.48 0.42 0.42 0.32 0.21 0.18 0.24 0.42 0.48 0.43 0.34 0.25 0.20 0.23 0.24 0.29 0.36 0.38 0.40 0.46 0.60 0.85 1.23 1.66 2.21 2.73 2.85 2.52 2.21
0.58 0.62 0.73 0.89 1.02 1.10 1.14 1.00 0.86 0.80 0.69 0.61 0.50 0.39 0.31 0.36 0.50 0.56 0.61 0.55 0.46 0.35 0.28 0.23 0.24 0.26 0.27 0.31 0.39 0.50 0.67 0.90 1.20 1.63 2.19 2.69 2.74 2.52
0.38 0.38 0.43 0.59 0.71 0.83 0.98 1.04 1.10 1.17 1.10 0.93 0.76 0.61 0.45 0.42 0.50 0.68 0.75 0.81 0.74 0.53 0.45 0.37 0.32 0.30 0.26 0.25 0.30 0.39 0.55 0.76 1.00 1.28 1.64 2.12 2.54 2.65
0.21 0.22 0.23 0.32 0.45 0.50 0.59 0.70 0.85 1.02 1.16 1.16 1.09 0.83 0.59 0.49 0.60 0.76 0.82 0.89 0.81 0.69 0.71 0.69 0.56 0.44 0.36 0.34 0.39 0.41 0.48 0.63 0.81 1.02 1.26 1.58 2.01 2.41
0.16 0.14 0.13 0.18 0.33 0.44 0.54 0.54 0.56 0.71 0.97 1.15 1.25 1.07 0.82 0.71 0.84 1.01 1.11 1.10 0.97 0.91 0.94 0.97 0.76 0.61 0.55 0.50 0.48 0.43 0.44 0.50 0.64 0.80 0.99 1.20 1.50 1.92
0.13 0.14 0.12 0.12 0.28 0.44 0.47 0.42 0.38 0.48 0.62 0.87 1.07 1.10 1.03 1.01 1.09 1.30 1.40 1.43 1.33 1.13 1.10 1.15 1.00 0.79 0.73 0.73 0.66 0.54 0.46 0.46 0.52 0.64 0.78 0.94 1.14 1.53
0.11 0.11 0.18 0.24 0.33 0.39 0.38 0.39 0.43 0.40 0.39 0.45 0.53 0.63 0.69 0.72 0.90 1.15 1.28 1.39 1.40 1.43 1.26 1.19 1.23 1.15 1.16 0.96 0.77 0.56 0.46 0.47 0.51 0.56 0.64 0.74 0.90 1.11
0.15 0.15 0.17 0.25 0.30 0.32 0.35 0.38 0.48 0.43 0.35 0.40 0.44 0.47 0.53 0.59 0.66 0.87 1.11 1.28 1.40 1.42 1.27 1.27 1.45 1.31 1.25 1.14 0.93 0.71 0.49 0.43 0.45 0.55 0.63 0.70 0.78 0.85
0.19 0.12 0.13 0.19 0.24 0.29 0.32 0.36 0.39 0.39 0.38 0.38 0.36 0.35 0.42 0.53 0.61 0.72 0.89 1.04 1.14 1.22 1.15 1.24 1.53 1.40 1.23 1.05 0.95 0.89 0.68 0.53 0.45 0.47 0.52 0.74 0.85 0.89
0.29 0.24 0.19 0.20 0.22 0.18 0.19 0.26 0.28 0.29 0.36 0.37 0.32 0.29 0.34 0.46 0.53 0.62 0.70 0.81 0.92 1.01 1.10 1.16 1.36 1.46 1.38 1.14 0.87 0.83 0.85 0.78 0.59 0.52 0.52 0.56 0.63 0.72
0.30 0.25 0.21 0.18 0.14 0.11 0.10 0.12 0.15 0.21 0.30 0.33 0.29 0.25 0.27 0.35 0.45 0.57 0.70 0.76 0.87 0.92 1.04 1.16 1.32 1.56 1.55 1.16 0.96 0.86 0.77 0.86 0.76 0.56 0.53 0.56 0.57 0.53
0.35 0.33 0.25 0.18 0.17 0.13 0.10 0.08 0.09 0.14 0.21 0.25 0.26 0.29 0.30 0.34 0.41 0.51 0.70 0.82 0.91 0.89 1.03 1.25 1.38 1.53 1.60 1.48 1.28 0.97 0.77 0.70 0.70 0.60 0.56 0.63 0.70 0.63
0.41 0.38 0.23 0.16 0.15 0.14 0.13 0.11 0.10 0.12 0.15 0.22 0.26 0.29 0.33 0.38 0.42 0.48 0.64 0.82 0.88 0.85 0.95 1.18 1.41 1.64 1.78 1.77 1.52 1.13 0.89 0.76 0.75 0.69 0.59 0.62 0.76 0.79
0.29 0.24 0.16 0.14 0.14 0.14 0.14 0.14 0.12 0.10 0.13 0.20 0.25 0.27 0.32 0.37 0.43 0.49 0.58 0.71 0.79 0.83 0.91 1.07 1.35 1.61 1.71 1.73 1.79 1.46 1.11 0.91 0.89 0.90 0.77 0.60 0.61 0.71
0.17 0.19 0.17 0.14 0.15 0.16 0.16 0.15 0.14 0.13 0.14 0.18 0.20 0.23 0.30 0.38 0.42 0.45 0.52 0.65 0.75 0.82 0.90 1.00 1.25 1.48 1.55 1.43 1.51 1.62 1.55 1.20 0.99 0.98 0.91 0.77 0.72 0.85
0.14 0.15 0.15 0.16 0.16 0.16 0.16 0.16 0.16 0.16 0.15 0.17 0.18 0.20 0.25 0.34 0.37 0.38 0.45 0.55 0.68 0.78 0.83 0.88 1.06 1.31 1.49 1.45 1.35 1.40 1.61 1.64 1.24 0.97 0.88 0.89 0.90 0.95
0.15 0.16 0.15 0.16 0.18 0.19 0.19 0.19 0.18 0.16 0.14 0.15 0.16 0.16 0.20 0.27 0.32 0.34 0.40 0.49 0.57 0.65 0.73 0.79 0.94 1.27 1.55 1.57 1.41 1.33 1.51 1.73 1.75 1.41 1.06 0.83 0.75 0.74
0.21 0.21 0.19 0.18 0.17 0.18 0.20 0.19 0.18 0.15 0.13 0.13 0.14 0.15 0.17 0.21 0.24 0.29 0.35 0.42 0.50 0.58 0.68 0.80 0.93 1.17 1.46 1.57 1.51 1.39 1.39 1.51 1.62 1.56 1.48 1.17 0.74 0.50

GEFSNE_prec_meanprecacc_126.txt.gz
Total_Precipitation_Accumulation
0.23 0.24 0.26 0.24 0.25 0.26 0.28 0.38 0.53 0.37 0.10 0.03 0.05 0.06 0.09 0.13 0.17 0.17 0.17 0.20 0.27 0.35 0.38 0.41 0.46 0.57 0.89 1.56 2.52 3.19 3.07 2.42 1.71 1.35 1.38 1.65 2.08 2.50
0.28 0.30 0.31 0.31 0.31 0.30 0.32 0.32 0.40 0.48 0.29 0.05 0.06 0.07 0.09 0.12 0.17 0.18 0.19 0.21 0.23 0.28 0.33 0.36 0.41 0.50 0.66 0.96 1.55 2.47 3.06 3.00 2.41 1.83 1.63 1.74 1.97 2.42
0.30 0.34 0.35 0.35 0.35 0.33 0.34 0.35 0.34 0.40 0.39 0.10 0.04 0.07 0.13 0.16 0.18 0.18 0.19 0.18 0.16 0.20 0.27 0.34 0.39 0.47 0.59 0.77 1.05 1.63 2.50 3.02 3.00 2.52 2.12 1.95 1.92 2.07
0.44 0.43 0.44 0.45 0.47 0.45 0.45 0.41 0.36 0.35 0.40 0.26 0.07 0.06 0.13 0.20 0.26 0.26 0.22 0.19 0.16 0.16 0.21 0.29 0.36 0.43 0.54 0.67 0.85 1.14 1.72 2.46 2.93 2.89 2.50 2.13 1.96 2.02
0.72 0.71 0.68 0.65 0.66 0.64 0.62 0.55 0.44 0.36 0.35 0.34 0.18 0.10 0.14 0.23 0.34 0.35 0.30 0.23 0.17 0.18 0.21 0.25 0.31 0.37 0.44 0.56 0.70 0.87 1.13 1.55 2.17 2.71 2.88 2.58 2.20 2.05
0.82 0.86 0.91 0.94 0.94 0.89 0.87 0.72 0.57 0.48 0.42 0.42 0.32 0.21 0.18 0.24 0.42 0.48 0.43 0.34 0.25 0.20 0.23 0.25 0.30 0.36 0.38 0.41 0.46 0.60 0.86 1.24 1.67 2.23 2.76 2.88 2.54 2.24
0.58 0.62 0.73 0.89 1.02 1.10 1.14 1.00 0.86 0.80 0.69 0.61 0.50 0.39 0.31 0.36 0.51 0.57 0.62 0.55 0.46 0.35 0.28 0.23 0.24 0.26 0.27 0.31 0.39 0.50 0.68 0.92 1.22 1.66 2.22 2.72 2.77 2.55
0.38 0.38 0.43 0.59 0.71 0.83 0.98 1.04 1.10 1.17 1.10 0.93 0.76 0.61 0.45 0.42 0.50 0.68 0.75 0.82 0.75 0.53 0.45 0.37 0.32 0.30 0.26 0.25 0.30 0.40 0.56 0.78 1.02 1.30 1.67 2.15 2.56 2.68
0.21 0.22 0.23 0.32 0.45 0.50 0.59 0.71 0.85 1.02 1.16 1.16 1.10 0.83 0.59 0.50 0.60 0.76 0.83 0.90 0.82 0.70 0.71 0.70 0.56 0.44 0.36 0.34 0.39 0.41 0.49 0.64 0.83 1.04 1.28 1.61 2.03 2.44
0.16 0.15 0.13 0.18 0.33 0.44 0.54 0.54 0.56 0.71 0.97 1.15 1.25 1.07 0.82 0.71 0.84 1.02 1.12 1.11 0.97 0.91 0.95 0.98 0.76 0.61 0.55 0.50 0.48 0.43 0.44 0.51 0.65 0.81 1.01 1.22 1.53 1.95
0.13 0.14 0.13 0.12 0.29 0.44 0.47 0.42 0.38 0.48 0.62 0.87 1.07 1.10 1.04 1.02 1.10 1.31 1.41 1.45 1.34 1.13 1.10 1.15 1.00 0.79 0.73 0.73 0.66 0.54 0.46 0.46 0.53 0.65 0.80 0.96 1.17 1.55
0.11 0.11 0.18 0.24 0.34 0.40 0.39 0.39 0.43 0.40 0.39 0.46 0.53 0.63 0.69 0.72 0.91 1.16 1.29 1.40 1.42 1.45 1.27 1.19 1.23 1.16 1.18 0.96 0.77 0.56 0.46 0.47 0.51 0.57 0.65 0.75 0.92 1.13
0.15 0.15 0.17 0.26 0.31 0.32 0.36 0.39 0.49 0.44 0.36 0.41 0.45 0.48 0.53 0.59 0.67 0.87 1.12 1.29 1.43 1.44 1.28 1.29 1.48 1.33 1.27 1.15 0.93 0.71 0.49 0.43 0.45 0.56 0.63 0.70 0.79 0.87
0.19 0.13 0.13 0.19 0.25 0.30 0.32 0.37 0.39 0.40 0.39 0.39 0.37 0.36 0.42 0.53 0.62 0.72 0.89 1.04 1.15 1.23 1.16 1.26 1.57 1.43 1.26 1.07 0.95 0.89 0.68 0.53 0.45 0.47 0.52 0.74 0.86 0.90
0.29 0.25 0.19 0.21 0.22 0.18 0.19 0.26 0.29 0.29 0.36 0.37 0.32 0.29 0.34 0.46 0.53 0.63 0.71 0.81 0.92 1.01 1.10 1.16 1.37 1.48 1.40 1.16 0.88 0.84 0.85 0.78 0.59 0.52 0.53 0.57 0.64 0.72
0.30 0.25 0.21 0.19 0.15 0.11 0.10 0.12 0.15 0.21 0.30 0.34 0.30 0.26 0.27 0.35 0.46 0.57 0.71 0.77 0.87 0.92 1.04 1.16 1.32 1.57 1.56 1.17 0.97 0.86 0.77 0.87 0.76 0.57 0.54 0.56 0.57 0.53
0.36 0.33 0.25 0.19 0.17 0.14 0.10 0.08 0.10 0.14 0.22 0.25 0.27 0.29 0.31 0.35 0.41 0.51 0.71 0.83 0.92 0.89 1.03 1.25 1.38 1.54 1.61 1.48 1.28 0.97 0.77 0.71 0.70 0.60 0.56 0.64 0.70 0.63
0.41 0.38 0.23 0.16 0.15 0.14 0.14 0.12 0.11 0.13 0.16 0.22 0.27 0.30 0.34 0.39 0.43 0.49 0.65 0.83 0.89 0.86 0.95 1.19 1.42 1.65 1.79 1.77 1.53 1.14 0.89 0.76 0.75 0.70 0.60 0.62 0.76 0.79
0.29 0.24 0.16 0.14 0.14 0.14 0.14 0.15 0.13 0.10 0.14 0.21 0.25 0.27 0.32 0.38 0.44 0.50 0.59 0.72 0.80 0.84 0.91 1.07 1.36 1.62 1.72 1.73 1.79 1.46 1.12 0.92 0.89 0.90 0.77 0.60 0.62 0.72
0.17 0.19 0.17 0.14 0.15 0.16 0.16 0.16 0.14 0.13 0.15 0.18 0.21 0.24 0.30 0.38 0.42 0.45 0.53 0.66 0.75 0.83 0.90 1.00 1.25 1.50 1.57 1.46 1.52 1.62 1.55 1.21 0.99 0.99 0.92 0.78 0.72 0.86
0.14 0.15 0.15 0.16 0.16 0.17 0.17 0.17 0.17 0.17 0.15 0.18 0.19 0.20 0.25 0.34 0.38 0.38 0.45 0.56 0.69 0.78 0.83 0.88 1.07 1.32 1.51 1.46 1.36 1.40 1.61 1.64 1.24 0.99 0.90 0.90 0.91 0.96
0.16 0.16 0.15 0.16 0.18 0.19 0.20 0.19 0.19 0.16 0.15 0.16 0.16 0.17 0.20 0.27 0.33 0.34 0.41 0.50 0.58 0.66 0.73 0.80 0.94 1.27 1.56 1.58 1.42 1.34 1.51 1.73 1.75 1.42 1.07 0.85 0.77 0.77
0.21 0.21 0.19 0.18 0.17 0.19 0.21 0.20 0.19 0.16 0.13 0.14 0.15 0.15 0.17 0.22 0.25 0.30 0.35 0.42 0.51 0.58 0.68 0.81 0.94 1.18 1.47 1.57 1.51 1.39 1.40 1.51 1.62 1.56 1.49 1.18 0.75 0.51

GEFSNE_prec_meanprecacc_132.txt.gz
Total_Precipitation_Accumulation
0.24 0.24 0.26 0.24 0.25 0.26 0.28 0.38 0.53 0.37 0.10 0.03 0.05 0.06 0.09 0.13 0.17 0.17 0.17 0.20 0.27 0.35 0.38 0.41 0.47 0.57 0.89 1.56 2.52 3.20 3.08 2.43 1.72 1.36 1.40 1.67 2.11 2.54
0.28 0.30 0.31 0.31 0.31 0.31 0.32 0.33 0.40 0.48 0.29 0.05 0.06 0.07 0.09 0.12 0.17 0.18 0.19 0.21 0.23 0.28 0.33 0.36 0.41 0.51 0.66 0.97 1.56 2.48 3.08 3.02 2.43 1.85 1.65 1.77 2.00 2.46
0.30 0.34 0.35 0.35 0.36 0.33 0.34 0.35 0.34 0.40 0.39 0.10 0.04 0.07 0.13 0.16 0.18 0.18 0.19 0.18 0.16 0.20 0.27 0.34 0.39 0.48 0.60 0.78 1.05 1.64 2.52 3.03 3.02 2.54 2.14 1.97 1.95 2.11
0.44 0.44 0.45 0.46 0.48 0.46 0.46 0.41 0.37 0.35 0.40 0.26 0.07 0.06 0.13 0.20 0.26 0.26 0.22 0.19 0.16 0.16 0.21 0.29 0.36 0.43 0.54 0.68 0.85 1.14 1.73 2.47 2.94 2.91 2.51 2.16 1.99 2.05
0.73 0.72 0.69 0.66 0.67 0.65 0.63 0.55 0.45 0.36 0.36 0.34 0.18 0.10 0.14 0.23 0.34 0.35 0.30 0.23 0.17 0.18 0.21 0.25 0.31 0.37 0.45 0.56 0.70 0.87 1.14 1.56 2.18 2.73 2.90 2.60 2.23 2.08
0.83 0.86 0.91 0.94 0.94 0.90 0.87 0.72 0.57 0.49 0.42 0.42 0.32 0.21 0.18 0.24 0.42 0.48 0.43 0.34 0.25 0.20 0.23 0.25 0.30 0.36 0.38 0.41 0.46 0.61 0.86 1.25 1.69 2.25 2.78 2.90 2.57 2.27
0.58 0.62 0.73 0.90 1.03 1.10 1.14 1.00 0.86 0.80 0.69 0.62 0.50 0.39 0.31 0.36 0.51 0.57 0.62 0.55 0.46 0.35 0.28 0.23 0.24 0.26 0.27 0.31 0.39 0.50 0.68 0.93 1.23 1.68 2.25 2.75 2.80 2.57
0.38 0.39 0.43 0.59 0.72 0.83 0.99 1.05 1.11 1.18 1.11 0.94 0.77 0.61 0.45 0.42 0.51 0.68 0.76 0.82 0.76 0.53 0.45 0.38 0.32 0.30 0.26 0.25 0.30 0.40 0.57 0.79 1.04 1.32 1.68 2.17 2.59 2.70
0.22 0.23 0.24 0.32 0.46 0.50 0.59 0.72 0.86 1.03 1.17 1.17 1.10 0.83 0.60 0.50 0.61 0.77 0.84 0.91 0.83 0.70 0.72 0.70 0.56 0.44 0.36 0.34 0.39 0.41 0.50 0.65 0.84 1.05 1.30 1.63 2.06 2.47
0.17 0.16 0.14 0.19 0.34 0.44 0.55 0.55 0.56 0.71 0.97 1.15 1.26 1.07 0.82 0.72 0.85 1.03 1.14 1.13 0.98 0.92 0.95 0.99 0.76 0.61 0.55 0.50 0.48 0.43 0.44 0.51 0.65 0.82 1.02 1.24 1.55 1.97
0.14 0.15 0.13 0.13 0.29 0.45 0.48 0.43 0.39 0.49 0.63 0.88 1.08 1.11 1.05 1.04 1.11 1.32 1.42 1.46 1.35 1.13 1.10 1.15 1.00 0.79 0.73 0.73 0.66 0.54 0.46 0.46 0.53 0.66 0.81 0.98 1.18 1.57
0.11 0.12 0.19 0.25 0.34 0.40 0.39 0.40 0.44 0.41 0.41 0.47 0.54 0.64 0.70 0.72 0.91 1.16 1.29 1.41 1.43 1.45 1.27 1.20 1.24 1.16 1.18 0.96 0.77 0.56 0.46 0.47 0.51 0.57 0.65 0.75 0.93 1.14
0.15 0.15 0.17 0.27 0.32 0.34 0.37 0.40 0.50 0.45 0.37 0.42 0.46 0.48 0.53 0.60 0.67 0.88 1.12 1.30 1.44 1.45 1.28 1.30 1.50 1.34 1.29 1.16 0.93 0.71 0.49 0.43 0.45 0.56 0.63 0.70 0.80 0.87
0.19 0.13 0.13 0.20 0.25 0.31 0.33 0.37 0.40 0.40 0.40 0.39 0.37 0.36 0.43 0.53 0.62 0.73 0.89 1.05 1.16 1.24 1.17 1.28 1.60 1.45 1.28 1.09 0.95 0.89 0.68 0.53 0.45 0.47 0.52 0.74 0.86 0.90
0.29 0.25 0.20 0.22 0.23 0.19 0.20 0.27 0.29 0.30 0.37 0.38 0.33 0.29 0.35 0.47 0.54 0.63 0.71 0.81 0.92 1.01 1.10 1.17 1.39 1.49 1.42 1.18 0.89 0.84 0.85 0.78 0.59 0.52 0.53 0.57 0.64 0.73
0.30 0.25 0.21 0.19 0.15 0.11 0.11 0.12 0.15 0.21 0.31 0.34 0.30 0.26 0.27 0.36 0.46 0.58 0.71 0.77 0.88 0.93 1.05 1.17 1.33 1.58 1.57 1.18 0.97 0.87 0.77 0.87 0.76 0.57 0.54 0.56 0.57 0.54
0.36 0.33 0.25 0.19 0.17 0.14 0.11 0.09 0.10 0.15 0.22 0.26 0.28 0.30 0.31 0.35 0.41 0.51 0.71 0.83 0.92 0.90 1.03 1.26 1.38 1.54 1.61 1.49 1.29 0.97 0.77 0.71 0.70 0.61 0.57 0.64 0.70 0.63
0.41 0.38 0.24 0.17 0.16 0.15 0.14 0.12 0.11 0.13 0.16 0.22 0.27 0.30 0.34 0.39 0.43 0.49 0.66 0.83 0.90 0.86 0.95 1.19 1.42 1.65 1.79 1.77 1.53 1.14 0.90 0.76 0.75 0.70 0.60 0.63 0.77 0.80
0.30 0.24 0.16 0.15 0.15 0.15 0.15 0.15 0.13 0.10 0.14 0.21 0.26 0.27 0.32 0.38 0.44 0.50 0.59 0.72 0.80 0.84 0.91 1.07 1.36 1.63 1.73 1.73 1.79 1.46 1.12 0.92 0.89 0.90 0.77 0.61 0.62 0.73
0.17 0.19 0.17 0.15 0.15 0.16 0.16 0.16 0.15 0.13 0.15 0.18 0.21 0.24 0.30 0.39 0.43 0.46 0.53 0.66 0.76 0.83 0.90 1.00 1.26 1.51 1.59 1.47 1.53 1.62 1.55 1.21 1.00 0.99 0.92 0.78 0.72 0.86
0.14 0.15 0.15 0.16 0.16 0.17 0.17 0.17 0.18 0.17 0.15 0.18 0.19 0.21 0.25 0.35 0.39 0.39 0.46 0.56 0.70 0.79 0.83 0.88 1.07 1.32 1.51 1.47 1.37 1.40 1.61 1.64 1.25 1.00 0.91 0.91 0.91 0.96
0.16 0.16 0.15 0.16 0.18 0.19 0.20 0.19 0.19 0.17 0.15 0.16 0.16 0.17 0.20 0.28 0.33 0.35 0.41 0.50 0.59 0.66 0.73 0.80 0.95 1.27 1.57 1.59 1.42 1.34 1.51 1.73 1.76 1.42 1.08 0.86 0.80 0.80
0.21 0.21 0.19 0.18 0.17 0.19 0.21 0.20 0.19 0.16 0.13 0.14 0.15 0.15 0.18 0.23 0.25 0.30 0.36 0.43 0.51 0.58 0.68 0.81 0.94 1.18 1.47 1.57 1.52 1.40 1.40 1.51 1.62 1.57 1.49 1.18 0.76 0.52